(28) Bellona
ephemeris date magn radius delta ra dec elong phase
Opposition30 May 202611.42.945 AU1.950 AU16h39m-08°12'166.2°4.7°
Today10 Jun 202611.52.958 AU1.975 AU16h30m-08°07'162.3°6.0°
(28) Bellona - 2026-06-10
astro.vanbuitenen.nl


 
-1 year
-1 month
-1 day
Now
+1 day
+1 month
+1 year

The interactive orbit chart above shows the body's path through the solar system and its position at the given date. Green and blue lines are shown perpendicular to the ecliptic plane: Green if the path is above the ecliptic plane, blue if it is below. (Left-click and drag to rotate the view; Right-click and drag to move the view; Use scroll wheel to zoom in our out.)

The orbital elements of Bellona are:

            e (Eccentricity)                : 0.1489548
            a (Semimajor axis)              : 2.7778334
            i (Inclination)                 : 9.42322
            Ω (Longitude of ascending node) : 144.14719
            ω (Argument of perihelion)      : 343.54232
            M (Mean anomaly)                : 107.96699
            Epoch                           : 2026 Jun 09

            L (Longitude of perihelion)     : 127.89980
            B (Latitude of perihelion)      : -2.65860
            P (Orbital period in years)     : 4.63            
        

The light curve chart below shows the estimated development of the minor planet's magnitude.


The all-sky chart below shows the path of the minor planet over the same period as the light curve. The current position is marked yellow.





The following chart shows the path of the minor planet in the next few days. The field of view is optimized for (~10x50) binoculars and finderscopes.




Ephemerides:
Date       Time       RA (2000)    DEC (2000)    delta   radius  elong  phase   PA    magn
2026-06-10 00:00 UT   16 30 43.2   -08 07 25     1.975    2.958  162.3    6.0   148   11.5 
2026-06-10 14:53 UT   16 30 12.4   -08 07 31     1.978    2.959  161.8    6.1   146   11.5 
2026-06-11 00:00 UT   16 29 53.6   -08 07 36     1.979    2.960  161.5    6.2   145   11.5 
2026-06-12 00:00 UT   16 29 04.6   -08 07 54     1.983    2.961  160.7    6.5   142   11.5 
2026-06-13 00:00 UT   16 28 16.2   -08 08 19     1.988    2.962  159.9    6.8   140   11.6 
2026-06-14 00:00 UT   16 27 28.4   -08 08 51     1.992    2.963  159.1    7.0   138   11.6 
2026-06-15 00:00 UT   16 26 41.3   -08 09 31     1.997    2.965  158.2    7.3   136   11.6 
2026-06-16 00:00 UT   16 25 55.0   -08 10 17     2.003    2.966  157.4    7.6   134   11.6 
2026-06-17 00:00 UT   16 25 09.4   -08 11 11     2.008    2.967  156.5    7.9   132   11.6 
2026-06-18 00:00 UT   16 24 24.6   -08 12 11     2.014    2.969  155.5    8.1   131   11.7 
2026-06-19 00:00 UT   16 23 40.7   -08 13 19     2.020    2.970  154.6    8.4   129   11.7 
2026-06-20 00:00 UT   16 22 57.7   -08 14 33     2.026    2.971  153.7    8.7   128   11.7 
2026-06-21 00:00 UT   16 22 15.7   -08 15 55     2.033    2.972  152.7    9.0   127   11.7 
2026-06-22 00:00 UT   16 21 34.6   -08 17 23     2.039    2.974  151.8    9.3   125   11.7 
2026-06-23 00:00 UT   16 20 54.5   -08 18 58     2.046    2.975  150.8    9.6   124   11.8 
2026-06-24 00:00 UT   16 20 15.4   -08 20 40     2.053    2.976  149.8    9.9   123   11.8 
2026-06-25 00:00 UT   16 19 37.4   -08 22 28     2.061    2.977  148.9   10.2   122   11.8 
2026-06-26 00:00 UT   16 19 00.5   -08 24 22     2.068    2.979  147.9   10.5   121   11.8 
2026-06-27 00:00 UT   16 18 24.6   -08 26 24     2.076    2.980  146.9   10.7   120   11.8 
2026-06-28 00:00 UT   16 17 50.0   -08 28 31     2.084    2.981  145.9   11.0   120   11.9 
2026-06-29 00:00 UT   16 17 16.4   -08 30 45     2.093    2.982  144.9   11.3   119   11.9 
2026-06-30 00:00 UT   16 16 44.1   -08 33 05     2.101    2.984  144.0   11.6   118   11.9 
2026-07-01 00:00 UT   16 16 12.9   -08 35 31     2.110    2.985  143.0   11.8   117   11.9 
2026-07-02 00:00 UT   16 15 43.0   -08 38 03     2.119    2.986  142.0   12.1   117   11.9 
2026-07-03 00:00 UT   16 15 14.2   -08 40 41     2.128    2.987  141.0   12.4   116   12.0 
2026-07-04 00:00 UT   16 14 46.8   -08 43 24     2.137    2.989  140.0   12.6   115   12.0 
2026-07-05 00:00 UT   16 14 20.5   -08 46 14     2.147    2.990  139.1   12.9   115   12.0 
2026-07-06 00:00 UT   16 13 55.6   -08 49 09     2.157    2.991  138.1   13.1   114   12.0 
2026-07-07 00:00 UT   16 13 31.9   -08 52 10     2.166    2.992  137.1   13.4   114   12.0 
2026-07-08 00:00 UT   16 13 09.6   -08 55 16     2.177    2.994  136.1   13.6   113   12.1 
2026-07-09 00:00 UT   16 12 48.5   -08 58 27     2.187    2.995  135.2   13.8   113   12.1 
2026-07-10 00:00 UT   16 12 28.8   -09 01 44     2.197    2.996  134.2   14.1   112   12.1 


    Terminology:
            
    delta:  distance between minor planet and earth in AU
    radius: distance between minor planet and sun in AU
    magn:   magnitude (brightness) estimate    
    ra:     right ascension in hours (24h = 360deg)
    dec:    declination in degrees
    elong:  elongation in degrees (angle sun-earth-minor planet)    
    phase:  phase angle in degrees (angle sun-minor planet-earth)        
    AU:     Astronomical Unit (mean distance between earth and sun: 149597870.7 km
    

Orbital elements provided by the MPC (Minor Planet Center).
Calculations by a modified version of AAPlus, a C# implementation of the AA+ project by PJ Naughter from the algorithms presented in the book "Astronomical Algorithms" by Jean Meeus.
NGC2000 dso catalog and star labels from VizieR as provided by the Strasbourg astronomical Data Center.
Tycho2 catalog from the ESO archive.